| time (UTC) | temp C | wind direction | speed KPH | gust KPH | rain 1hr cm | rain 24hr cm | rain mn cm | humidity % | barometer mb |
| 20260903163056 | 15 | 217 | 3.2 | 9.7 | 0.28 | 0.71 | 0.71 | 88 | 1013.3 |
| 20260903162120 | 15 | 217 | 4.8 | 8.0 | 0.25 | 0.71 | 0.71 | 88 | 1013.2 |
| 20260903161040 | 15 | 201 | 3.2 | 9.7 | 0.23 | 0.66 | 0.66 | 88 | 1013.5 |
| 20260903160125 | 15 | 219 | 3.2 | 16.1 | 0.13 | 0.53 | 0.53 | 87 | 1013.6 |
| 20260903155044 | 15 | 222 | 3.2 | 11.3 | 0.08 | 0.46 | 0.46 | 86 | 1013.9 |
| 20260903154048 | 15 | 216 | 4.8 | 11.3 | 0.13 | 0.43 | 0.43 | 86 | 1013.9 |
| 20260903153112 | 15 | 199 | 3.2 | 8.0 | 0.23 | 0.43 | 0.43 | 86 | 1014.0 |
| 20260903152031 | 15 | 217 | 4.8 | 12.9 | 0.28 | 0.43 | 0.43 | 86 | 1014.1 |
| 20260903151056 | 15 | 175 | 4.8 | 14.5 | 0.33 | 0.43 | 0.43 | 86 | 1014.3 |
| 20260903150016 | 15 | 206 | 6.4 | 16.1 | 0.36 | 0.41 | 0.41 | 86 | 1014.4 |
| 20260903145042 | 15 | 198 | 8.0 | 12.9 | 0.36 | 0.38 | 0.38 | 87 | 1014.6 |
| 20260903144056 | 15 | 220 | 3.2 | 11.3 | 0.30 | 0.30 | 0.30 | 86 | 1014.7 |
| 20260903143016 | 15 | 219 | 6.4 | 11.3 | 0.20 | 0.20 | 0.20 | 84 | 1014.8 |
| 20260903142041 | 15 | 223 | 8.0 | 17.7 | 0.15 | 0.15 | 0.15 | 83 | 1014.9 |
| 20260903141105 | 16 | 225 | 9.7 | 32.2 | 0.10 | 0.10 | 0.10 | 82 | 1015.1 |
| 20260903140024 | 16 | 224 | 14.5 | 29.0 | 0.05 | 0.05 | 0.05 | 78 | 1015.0 |
| 20260903135111 | 17 | 234 | 9.7 | 20.9 | 0.03 | 0.03 | 0.03 | 77 | 1015.0 |
| 20260903134114 | 17 | 230 | 8.0 | 20.9 | 0.00 | 0.00 | 0.00 | 75 | 1015.0 |
| 20260903133032 | 17 | 238 | 6.4 | 22.5 | 0.00 | 0.00 | 0.00 | 72 | 1015.2 |
| 20260903132048 | 18 | 239 | 11.3 | 24.1 | 0.00 | 0.00 | 0.00 | 67 | 1015.2 |
| 20260903131112 | 18 | 216 | 4.8 | 14.5 | 0.00 | 0.00 | 0.00 | 68 | 1015.2 |
| 20260903060039 | 15 | 230 | 9.7 | 19.3 | 0.00 | 0.61 | 0.00 | 75 | 1017.2 |
| 20260903055055 | 15 | 235 | 9.7 | 19.3 | 0.00 | 0.61 | 0.00 | 75 | 1017.1 |
| 20260903054120 | 15 | 235 | 8.0 | 19.3 | 0.00 | 0.61 | 0.00 | 76 | 1017.1 |
| 20260903053041 | 14 | 229 | 6.4 | 14.5 | 0.00 | 0.64 | 0.00 | 77 | 1017.2 |
| 20260903052104 | 14 | 230 | 3.2 | 14.5 | 0.00 | 0.64 | 0.00 | 77 | 1017.2 |
| 20260903051025 | 14 | 224 | 8.0 | 17.7 | 0.00 | 0.79 | 0.00 | 77 | 1017.3 |
| 20260903050052 | 14 | 224 | 6.4 | 12.9 | 0.00 | 0.94 | 0.00 | 77 | 1017.3 |
| 20260903045113 | 14 | 232 | 4.8 | 11.3 | 0.00 | 0.94 | 0.00 | 77 | 1017.2 |
| 20260903044033 | 14 | 210 | 4.8 | 12.9 | 0.00 | 0.94 | 0.00 | 77 | 1017.1 |
| 20260903043056 | 14 | 237 | 4.8 | 9.7 | 0.00 | 0.94 | 0.00 | 78 | 1017.3 |
| 20260903042120 | 14 | 228 | 3.2 | 9.7 | 0.00 | 0.94 | 0.00 | 78 | 1017.3 |
| 20260903041041 | 14 | 224 | 4.8 | 12.9 | 0.00 | 0.94 | 0.00 | 77 | 1017.4 |
| 20260903040125 | 14 | 231 | 4.8 | 16.1 | 0.00 | 0.94 | 0.00 | 76 | 1017.4 |
| 20260903035121 | 14 | 218 | 8.0 | 14.5 | 0.00 | 0.99 | 0.00 | 77 | 1017.4 |
| 20260903034040 | 14 | 228 | 3.2 | 20.9 | 0.00 | 1.07 | 0.00 | 76 | 1017.5 |
| 20260903033103 | 14 | 230 | 4.8 | 12.9 | 0.00 | 1.07 | 0.00 | 77 | 1017.4 |
| 20260903032120 | 14 | 232 | 4.8 | 9.7 | 0.00 | 1.07 | 0.00 | 77 | 1017.4 |
| 20260903031041 | 14 | 238 | 6.4 | 11.3 | 0.00 | 1.07 | 0.00 | 77 | 1017.5 |
| 20260903030104 | 14 | 225 | 6.4 | 14.5 | 0.00 | 1.07 | 0.00 | 77 | 1017.6 |
| 20260903025125 | 14 | 219 | 4.8 | 12.9 | 0.00 | 1.07 | 0.00 | 77 | 1017.6 |
| 20260903024040 | 14 | 228 | 6.4 | 11.3 | 0.00 | 1.07 | 0.00 | 77 | 1017.7 |
| 20260903023104 | 13 | 235 | 4.8 | 16.1 | 0.00 | 1.07 | 0.00 | 78 | 1017.6 |
| 20260903022036 | 13 | 224 | 4.8 | 11.3 | 0.00 | 1.07 | 0.00 | 78 | 1017.7 |
| 20260903021128 | 14 | 233 | 3.2 | 14.5 | 0.00 | 1.07 | 0.00 | 78 | 1017.7 |
| 20260903020112 | 14 | 228 | 6.4 | 16.1 | 0.00 | 1.07 | 0.00 | 78 | 1017.8 |
| 20260903015032 | 14 | 236 | 6.4 | 14.5 | 0.00 | 1.07 | 0.00 | 78 | 1017.9 |
| 20260903014137 | 14 | 220 | 9.7 | 16.1 | 0.00 | 1.07 | 0.00 | 78 | 1017.8 |
| 20260903013119 | 14 | 223 | 8.0 | 16.1 | 0.00 | 1.12 | 0.00 | 79 | 1017.9 |
| 20260903012040 | 14 | 229 | 8.0 | 19.3 | 0.00 | 1.12 | 0.00 | 79 | 1017.8 |
| 20260903011123 | 14 | 221 | 6.4 | 14.5 | 0.00 | 1.12 | 0.00 | 79 | 1017.8 |
| 20260903010043 | 15 | 219 | 6.4 | 14.5 | 0.00 | 1.12 | 0.00 | 79 | 1017.7 |
| 20260903005047 | 14 | 221 | 8.0 | 16.1 | 0.00 | 1.12 | 0.00 | 80 | 1017.7 |
| 20260903004103 | 14 | 238 | 8.0 | 12.9 | 0.00 | 1.12 | 0.00 | 81 | 1017.7 |
| 20260903003023 | 14 | 226 | 4.8 | 14.5 | 0.00 | 1.12 | 0.00 | 81 | 1017.7 |
| 20260903002047 | 14 | 232 | 6.4 | 14.5 | 0.00 | 1.12 | 0.00 | 82 | 1017.8 |
| 20260903001112 | 14 | 233 | 4.8 | 14.5 | 0.00 | 1.12 | 0.00 | 82 | 1017.9 |
| 20260903000034 | 14 | 237 | 6.4 | 16.1 | 0.00 | 1.12 | 0.00 | 82 | 1018.1 |
| 20260902235116 | 14 | 225 | 8.0 | 17.7 | 0.00 | 1.12 | 1.12 | 82 | 1018.1 |
| 20260902234141 | 13 | 232 | 4.8 | 9.7 | 0.00 | 1.12 | 1.12 | 83 | 1018.1 |
| 20260902233040 | 13 | 230 | 4.8 | 11.3 | 0.00 | 1.12 | 1.12 | 83 | 1018.0 |
| 20260902232103 | 13 | 234 | 4.8 | 11.3 | 0.00 | 1.12 | 1.12 | 83 | 1018.2 |
| 20260902231023 | 13 | 230 | 4.8 | 12.9 | 0.00 | 1.12 | 1.12 | 83 | 1018.1 |
| 20260902230039 | 13 | 212 | 4.8 | 11.3 | 0.00 | 1.12 | 1.12 | 83 | 1018.2 |
| 20260902225103 | 13 | 200 | 4.8 | 11.3 | 0.00 | 1.12 | 1.12 | 82 | 1018.1 |
| 20260902224024 | 13 | 199 | 3.2 | 8.0 | 0.00 | 1.12 | 1.12 | 82 | 1018.2 |
| 20260902223047 | 13 | 217 | 4.8 | 9.7 | 0.00 | 1.12 | 1.12 | 82 | 1018.2 |
| 20260902222111 | 14 | 217 | 4.8 | 8.0 | 0.00 | 1.12 | 1.12 | 82 | 1018.2 |
| 20260902221031 | 14 | 214 | 4.8 | 14.5 | 0.00 | 1.12 | 1.12 | 82 | 1018.3 |
| 20260902220057 | 14 | 219 | 4.8 | 11.3 | 0.00 | 1.12 | 1.12 | 82 | 1018.4 |
| 20260902215119 | 14 | 213 | 6.4 | 11.3 | 0.00 | 1.12 | 1.12 | 82 | 1018.5 |
| 20260902214040 | 14 | 230 | 4.8 | 11.3 | 0.00 | 1.12 | 1.12 | 81 | 1018.6 |
| 20260902213103 | 14 | 222 | 4.8 | 12.9 | 0.00 | 1.12 | 1.12 | 81 | 1018.5 |
| 20260902212023 | 14 | 189 | 6.4 | 12.9 | 0.00 | 1.12 | 1.12 | 80 | 1018.6 |
| 20260902211047 | 15 | 229 | 6.4 | 16.1 | 0.00 | 1.12 | 1.12 | 80 | 1018.6 |
| 20260902210112 | 14 | 220 | 6.4 | 11.3 | 0.00 | 1.12 | 1.12 | 80 | 1018.6 |
| 20260902205031 | 14 | 226 | 4.8 | 11.3 | 0.00 | 1.12 | 1.12 | 80 | 1018.5 |
| 20260902204056 | 15 | 228 | 6.4 | 11.3 | 0.00 | 1.12 | 1.12 | 80 | 1018.6 |
| 20260902203120 | 15 | 224 | 4.8 | 14.5 | 0.00 | 1.12 | 1.12 | 79 | 1018.6 |
| 20260902202040 | 15 | 219 | 4.8 | 12.9 | 0.00 | 1.12 | 1.12 | 79 | 1018.6 |
| 20260902201104 | 15 | 211 | 8.0 | 12.9 | 0.00 | 1.12 | 1.12 | 78 | 1018.7 |
| 20260902200026 | 15 | 219 | 4.8 | 12.9 | 0.00 | 1.12 | 1.12 | 78 | 1018.6 |
| 20260902195048 | 15 | 232 | 6.4 | 11.3 | 0.00 | 1.12 | 1.12 | 78 | 1018.6 |
| 20260902194112 | 15 | 227 | 4.8 | 11.3 | 0.00 | 1.12 | 1.12 | 78 | 1018.6 |
| 20260902193059 | 15 | 216 | 6.4 | 9.7 | 0.00 | 1.12 | 1.12 | 77 | 1018.8 |
| 20260902192055 | 15 | 223 | 6.4 | 11.3 | 0.00 | 1.12 | 1.12 | 77 | 1018.8 |
| 20260902191119 | 15 | 235 | 4.8 | 8.0 | 0.00 | 1.12 | 1.12 | 77 | 1018.8 |
| 20260902190040 | 15 | 246 | 3.2 | 8.0 | 0.00 | 1.12 | 1.12 | 77 | 1018.9 |
| 20260902185104 | 15 | 237 | 4.8 | 9.7 | 0.00 | 1.12 | 1.12 | 77 | 1019.0 |
| 20260902184024 | 15 | 233 | 4.8 | 9.7 | 0.00 | 1.12 | 1.12 | 76 | 1019.0 |
| 20260902183048 | 15 | 237 | 4.8 | 8.0 | 0.00 | 1.12 | 1.12 | 76 | 1019.0 |
| 20260902182111 | 15 | 236 | 3.2 | 8.0 | 0.00 | 1.12 | 1.12 | 75 | 1018.9 |
| 20260902181032 | 15 | 237 | 4.8 | 9.7 | 0.00 | 1.12 | 1.12 | 75 | 1019.0 |
| 20260902180055 | 16 | 238 | 4.8 | 8.0 | 0.00 | 1.12 | 1.12 | 75 | 1018.8 |
| 20260902175119 | 16 | 239 | 6.4 | 14.5 | 0.00 | 1.12 | 1.12 | 74 | 1018.9 |
| 20260902174040 | 16 | 244 | 4.8 | 11.3 | 0.00 | 1.12 | 1.12 | 74 | 1018.9 |
| 20260902173124 | 16 | 244 | 6.4 | 14.5 | 0.00 | 1.12 | 1.12 | 75 | 1018.9 |
| 20260902172024 | 16 | 242 | 6.4 | 12.9 | 0.00 | 1.12 | 1.12 | 75 | 1018.9 |
| 20260902171107 | 16 | 246 | 6.4 | 14.5 | 0.00 | 1.12 | 1.12 | 73 | 1019.0 |
| 20260902170112 | 16 | 251 | 6.4 | 12.9 | 0.00 | 1.12 | 1.12 | 74 | 1018.8 |
| 20260902165116 | 17 | 238 | 6.4 | 14.5 | 0.00 | 1.12 | 1.12 | 74 | 1018.9 |
| 20260902164055 | 17 | 253 | 6.4 | 12.9 | 0.00 | 1.12 | 1.12 | 72 | 1018.8 |